| time (UTC) | temp C | wind direction | speed KPH | gust KPH | rain 1hr cm | rain 24hr cm | rain mn cm | humidity % | barometer mb |
| 20260906194529 | 40 | 0 | 3.2 | 12.9 | 0.00 | 0.00 | 0.00 | 25 | 1008.7 |
| 20260906194015 | 40 | 45 | 1.6 | 12.9 | 0.00 | 0.00 | 0.00 | 27 | 1008.7 |
| 20260906194011 | 40 | 45 | 1.6 | 12.9 | 0.00 | 0.00 | 0.00 | 25 | 1008.7 |
| 20260906193008 | 39 | 338 | 3.2 | 12.9 | 0.00 | 0.00 | 0.00 | 27 | 1008.7 |
| 20260906192509 | 39 | 23 | 1.6 | 9.7 | 0.00 | 0.00 | 0.00 | 25 | 1008.7 |
| 20260906192008 | 38 | 23 | 1.6 | 8.0 | 0.00 | 0.00 | 0.00 | 27 | 1009.0 |
| 20260906191510 | 38 | 203 | 1.6 | 12.9 | 0.00 | 0.00 | 0.00 | 25 | 1009.0 |
| 20260906191010 | 38 | 203 | 1.6 | 12.9 | 0.00 | 0.00 | 0.00 | 25 | 1008.7 |
| 20260906190509 | 38 | 203 | 1.6 | 9.7 | 0.00 | 0.00 | 0.00 | 25 | 1009.0 |
| 20260906190010 | 38 | 180 | 0.0 | 8.0 | 0.00 | 0.00 | 0.00 | 25 | 1009.0 |
| 20260906185510 | 38 | 180 | 1.6 | 8.0 | 0.00 | 0.00 | 0.00 | 25 | 1009.0 |
| 20260906185239 | 38 | 270 | 0.0 | 6.4 | 0.00 | 0.00 | 0.00 | 27 | 1009.3 |
| 20260906184508 | 39 | 113 | 0.0 | 9.7 | 0.00 | 0.00 | 0.00 | 25 | 1009.0 |
| 20260906184009 | 39 | 225 | 1.6 | 9.7 | 0.00 | 0.00 | 0.00 | 25 | 1009.3 |
| 20260906183508 | 39 | 203 | 1.6 | 8.0 | 0.00 | 0.00 | 0.00 | 25 | 1009.3 |
| 20260906183009 | 40 | 203 | 0.0 | 6.4 | 0.00 | 0.00 | 0.00 | 25 | 1009.3 |
| 20260906182509 | 40 | 0 | 1.6 | 6.4 | 0.00 | 0.00 | 0.00 | 27 | 1009.7 |
| 20260906182009 | 40 | 248 | 0.0 | 8.0 | 0.00 | 0.00 | 0.00 | 25 | 1009.7 |
| 20260906181510 | 40 | 23 | 1.6 | 8.0 | 0.00 | 0.00 | 0.00 | 25 | 1009.7 |
| 20260906181009 | 40 | 203 | 1.6 | 6.4 | 0.00 | 0.00 | 0.00 | 27 | 1010.0 |
| 20260906180744 | 40 | 180 | 0.0 | 8.0 | 0.00 | 0.00 | 0.00 | 25 | 1010.0 |
| 20260906180008 | 39 | 293 | 1.6 | 9.7 | 0.00 | 0.00 | 0.00 | 27 | 1010.0 |
| 20260906175509 | 38 | 0 | 0.0 | 9.7 | 0.00 | 0.00 | 0.00 | 27 | 1010.0 |
| 20260906175008 | 38 | 315 | 1.6 | 8.0 | 0.00 | 0.00 | 0.00 | 29 | 1010.0 |
| 20260906174746 | 38 | 45 | 0.0 | 6.4 | 0.00 | 0.00 | 0.00 | 30 | 1010.5 |
| 20260906174511 | 38 | 203 | 1.6 | 8.0 | 0.00 | 0.00 | 0.00 | 29 | 1010.0 |
| 20260906173740 | 37 | 315 | 1.6 | 6.4 | 0.00 | 0.00 | 0.00 | 27 | 1010.5 |
| 20260906173010 | 37 | 270 | 1.6 | 6.4 | 0.00 | 0.00 | 0.00 | 30 | 1010.5 |
| 20260906172510 | 37 | 23 | 1.6 | 8.0 | 0.00 | 0.00 | 0.00 | 30 | 1010.5 |
| 20260906172010 | 37 | 225 | 1.6 | 8.0 | 0.00 | 0.00 | 0.00 | 30 | 1010.5 |
| 20260906171739 | 36 | 0 | 0.0 | 6.4 | 0.00 | 0.00 | 0.00 | 30 | 1010.5 |
| 20260906171009 | 36 | 315 | 1.6 | 6.4 | 0.00 | 0.00 | 0.00 | 31 | 1010.5 |
| 20260906170739 | 36 | 23 | 1.6 | 6.4 | 0.00 | 0.00 | 0.00 | 32 | 1010.5 |
| 20260906170240 | 36 | 203 | 1.6 | 6.4 | 0.00 | 0.00 | 0.00 | 31 | 1010.5 |
| 20260906165510 | 35 | 270 | 0.0 | 4.8 | 0.00 | 0.00 | 0.00 | 32 | 1010.5 |
| 20260906165009 | 35 | 338 | 0.0 | 6.4 | 0.00 | 0.00 | 0.00 | 35 | 1010.5 |
| 20260906164509 | 35 | 203 | 1.6 | 6.4 | 0.00 | 0.00 | 0.00 | 35 | 1010.5 |
| 20260906164009 | 34 | 158 | 0.0 | 4.8 | 0.00 | 0.00 | 0.00 | 35 | 1010.8 |
| 20260906163509 | 33 | 225 | 0.0 | 4.8 | 0.00 | 0.00 | 0.00 | 35 | 1010.8 |
| 20260906163008 | 33 | 23 | 0.0 | 3.2 | 0.00 | 0.00 | 0.00 | 37 | 1010.8 |
| 20260906162509 | 33 | 23 | 0.0 | 3.2 | 0.00 | 0.00 | 0.00 | 37 | 1010.8 |
| 20260906162008 | 32 | 180 | 0.0 | 3.2 | 0.00 | 0.00 | 0.00 | 37 | 1010.8 |
| 20260906161509 | 32 | 203 | 0.0 | 4.8 | 0.00 | 0.00 | 0.00 | 39 | 1010.8 |
| 20260906161009 | 32 | 315 | 0.0 | 4.8 | 0.00 | 0.00 | 0.00 | 40 | 1010.8 |
| 20260906160509 | 31 | 270 | 0.0 | 3.2 | 0.00 | 0.00 | 0.00 | 40 | 1010.8 |
| 20260906160009 | 31 | 23 | 0.0 | 3.2 | 0.00 | 0.00 | 0.00 | 40 | 1010.8 |
| 20260906155509 | 31 | 248 | 0.0 | 1.6 | 0.00 | 0.00 | 0.00 | 40 | 1010.8 |
| 20260906155009 | 31 | 203 | 0.0 | 1.6 | 0.00 | 0.00 | 0.00 | 40 | 1010.8 |
| 20260906154508 | 31 | 45 | 0.0 | 1.6 | 0.00 | 0.00 | 0.00 | 40 | 1010.8 |
| 20260906154007 | 31 | 158 | 0.0 | 0.0 | 0.00 | 0.00 | 0.00 | 43 | 1010.8 |
| 20260906153508 | 30 | 248 | 0.0 | 1.6 | 0.00 | 0.00 | 0.00 | 43 | 1010.8 |
| 20260906153239 | 30 | 0 | 0.0 | 3.2 | 0.00 | 0.00 | 0.00 | 45 | 1010.8 |
| 20260906152509 | 30 | 158 | 0.0 | 3.2 | 0.00 | 0.00 | 0.00 | 44 | 1010.8 |
| 20260906152009 | 30 | 180 | 0.0 | 0.0 | 0.00 | 0.00 | 0.00 | 45 | 1010.8 |
| 20260906151510 | 30 | 180 | 0.0 | 0.0 | 0.00 | 0.00 | 0.00 | 45 | 1010.8 |
| 20260906151009 | 29 | 180 | 0.0 | 0.0 | 0.00 | 0.00 | 0.00 | 46 | 1010.8 |
| 20260906150509 | 29 | 180 | 0.0 | 0.0 | 0.00 | 0.00 | 0.00 | 46 | 1010.8 |
| 20260906150239 | 29 | 203 | 0.0 | 0.0 | 0.00 | 0.00 | 0.00 | 45 | 1010.8 |
| 20260906150226 | 29 | 203 | 0.0 | 0.0 | 0.00 | 0.00 | 0.00 | 49 | 1010.5 |
| 20260906145724 | 28 | 203 | 0.0 | 0.0 | 0.00 | 0.00 | 0.00 | 48 | 1010.8 |
| 20260906144508 | 28 | 45 | 0.0 | 0.0 | 0.00 | 0.00 | 0.00 | 50 | 1010.8 |
| 20260906144239 | 28 | 270 | 0.0 | 0.0 | 0.00 | 0.00 | 0.00 | 51 | 1010.8 |
| 20260906143509 | 28 | 45 | 0.0 | 0.0 | 0.00 | 0.00 | 0.00 | 53 | 1010.5 |
| 20260906143009 | 28 | 45 | 0.0 | 0.0 | 0.00 | 0.00 | 0.00 | 54 | 1010.5 |
| 20260906142741 | 27 | 45 | 0.0 | 0.0 | 0.00 | 0.00 | 0.00 | 55 | 1010.5 |
| 20260906142009 | 27 | 45 | 0.0 | 0.0 | 0.00 | 0.00 | 0.00 | 55 | 1010.5 |
| 20260906141509 | 27 | 45 | 0.0 | 0.0 | 0.00 | 0.00 | 0.00 | 55 | 1010.5 |
| 20260906141008 | 27 | 90 | 0.0 | 0.0 | 0.00 | 0.00 | 0.00 | 54 | 1010.0 |
| 20260906140739 | 27 | 180 | 0.0 | 0.0 | 0.00 | 0.00 | 0.00 | 55 | 1010.0 |
| 20260906140007 | 27 | 180 | 0.0 | 0.0 | 0.00 | 0.00 | 0.00 | 56 | 1010.0 |
| 20260906135508 | 27 | 180 | 0.0 | 0.0 | 0.00 | 0.00 | 0.00 | 55 | 1010.0 |
| 20260906135240 | 27 | 180 | 0.0 | 0.0 | 0.00 | 0.00 | 0.00 | 55 | 1010.0 |
| 20260906134509 | 27 | 180 | 0.0 | 0.0 | 0.00 | 0.00 | 0.00 | 55 | 1010.0 |
| 20260906134009 | 27 | 180 | 0.0 | 0.0 | 0.00 | 0.00 | 0.00 | 55 | 1009.7 |
| 20260906133510 | 27 | 180 | 0.0 | 0.0 | 0.00 | 0.00 | 0.00 | 55 | 1009.7 |
| 20260906133009 | 27 | 180 | 0.0 | 0.0 | 0.00 | 0.00 | 0.00 | 55 | 1010.0 |
| 20260906132508 | 27 | 180 | 0.0 | 0.0 | 0.00 | 0.00 | 0.00 | 55 | 1010.0 |
| 20260906132008 | 27 | 180 | 0.0 | 0.0 | 0.00 | 0.00 | 0.00 | 54 | 1009.7 |
| 20260906131739 | 27 | 180 | 0.0 | 0.0 | 0.00 | 0.00 | 0.00 | 55 | 1009.7 |
| 20260906131008 | 27 | 180 | 0.0 | 0.0 | 0.00 | 0.00 | 0.00 | 54 | 1009.7 |
| 20260906130509 | 27 | 180 | 0.0 | 0.0 | 0.00 | 0.00 | 0.00 | 55 | 1009.3 |
| 20260906130239 | 27 | 180 | 0.0 | 0.0 | 0.00 | 0.00 | 0.00 | 54 | 1009.3 |
| 20260906125509 | 27 | 180 | 0.0 | 0.0 | 0.00 | 0.00 | 0.00 | 54 | 1009.3 |
| 20260906125009 | 27 | 180 | 0.0 | 0.0 | 0.00 | 0.00 | 0.00 | 54 | 1009.7 |
| 20260906124509 | 27 | 180 | 0.0 | 0.0 | 0.00 | 0.00 | 0.00 | 54 | 1009.3 |
| 20260906124008 | 27 | 180 | 0.0 | 0.0 | 0.00 | 0.00 | 0.00 | 54 | 1009.0 |
| 20260906123508 | 27 | 180 | 0.0 | 0.0 | 0.00 | 0.00 | 0.00 | 54 | 1009.3 |
| 20260906123239 | 27 | 180 | 0.0 | 0.0 | 0.00 | 0.00 | 0.00 | 53 | 1009.3 |
| 20260906122508 | 27 | 180 | 0.0 | 0.0 | 0.00 | 0.00 | 0.00 | 53 | 1009.0 |
| 20260906122008 | 27 | 180 | 0.0 | 0.0 | 0.00 | 0.00 | 0.00 | 51 | 1009.3 |
| 20260906121509 | 27 | 180 | 0.0 | 0.0 | 0.00 | 0.00 | 0.00 | 53 | 1009.3 |
| 20260906121009 | 27 | 180 | 0.0 | 0.0 | 0.00 | 0.00 | 0.00 | 51 | 1009.3 |
| 20260906120509 | 27 | 180 | 0.0 | 0.0 | 0.00 | 0.00 | 0.00 | 53 | 1009.3 |
| 20260906120009 | 27 | 180 | 0.0 | 0.0 | 0.00 | 0.00 | 0.00 | 51 | 1009.0 |
| 20260906115508 | 27 | 180 | 0.0 | 0.0 | 0.00 | 0.00 | 0.00 | 51 | 1009.3 |
| 20260906115008 | 27 | 180 | 0.0 | 0.0 | 0.00 | 0.00 | 0.00 | 50 | 1009.0 |
| 20260906114508 | 27 | 180 | 0.0 | 0.0 | 0.00 | 0.00 | 0.00 | 51 | 1009.3 |
| 20260906114007 | 27 | 180 | 0.0 | 0.0 | 0.00 | 0.00 | 0.00 | 50 | 1009.3 |
| 20260906113739 | 27 | 180 | 0.0 | 0.0 | 0.00 | 0.00 | 0.00 | 50 | 1009.3 |
| 20260906113009 | 28 | 180 | 0.0 | 0.0 | 0.00 | 0.00 | 0.00 | 51 | 1009.0 |
| 20260906112509 | 28 | 180 | 0.0 | 0.0 | 0.00 | 0.00 | 0.00 | 50 | 1009.0 |
| 20260906112009 | 28 | 180 | 0.0 | 0.0 | 0.00 | 0.00 | 0.00 | 50 | 1009.3 |
| 20260906111509 | 28 | 180 | 0.0 | 0.0 | 0.00 | 0.00 | 0.00 | 50 | 1009.0 |
| 20260906111009 | 28 | 180 | 0.0 | 0.0 | 0.00 | 0.00 | 0.00 | 51 | 1009.0 |
| 20260906110509 | 28 | 180 | 0.0 | 0.0 | 0.00 | 0.00 | 0.00 | 50 | 1009.0 |
| 20260906110239 | 28 | 180 | 0.0 | 0.0 | 0.00 | 0.00 | 0.00 | 50 | 1009.0 |
| 20260906105738 | 28 | 180 | 0.0 | 0.0 | 0.00 | 0.00 | 0.00 | 50 | 1009.3 |
| 20260906105009 | 28 | 180 | 0.0 | 0.0 | 0.00 | 0.00 | 0.00 | 50 | 1009.3 |
| 20260906104509 | 28 | 180 | 0.0 | 0.0 | 0.00 | 0.00 | 0.00 | 50 | 1009.0 |
| 20260906104008 | 28 | 180 | 0.0 | 0.0 | 0.00 | 0.00 | 0.00 | 50 | 1009.3 |
| 20260906103740 | 28 | 180 | 0.0 | 0.0 | 0.00 | 0.00 | 0.00 | 49 | 1009.0 |
| 20260906103009 | 28 | 180 | 0.0 | 0.0 | 0.00 | 0.00 | 0.00 | 50 | 1009.0 |
| 20260906102740 | 28 | 180 | 0.0 | 0.0 | 0.00 | 0.00 | 0.00 | 50 | 1009.0 |
| 20260906102009 | 28 | 180 | 0.0 | 0.0 | 0.00 | 0.00 | 0.00 | 48 | 1009.0 |
| 20260906101508 | 28 | 180 | 0.0 | 0.0 | 0.00 | 0.00 | 0.00 | 49 | 1009.0 |
| 20260906101007 | 28 | 180 | 0.0 | 0.0 | 0.00 | 0.00 | 0.00 | 48 | 1009.0 |
| 20260906100508 | 28 | 180 | 0.0 | 0.0 | 0.00 | 0.00 | 0.00 | 49 | 1009.3 |
| 20260906100240 | 28 | 180 | 0.0 | 0.0 | 0.00 | 0.00 | 0.00 | 49 | 1009.3 |
| 20260906095509 | 28 | 180 | 0.0 | 0.0 | 0.00 | 0.00 | 0.00 | 49 | 1009.0 |
| 20260906095009 | 28 | 180 | 0.0 | 0.0 | 0.00 | 0.00 | 0.00 | 49 | 1009.0 |
| 20260906094509 | 28 | 180 | 0.0 | 0.0 | 0.00 | 0.00 | 0.00 | 48 | 1009.0 |
| 20260906094013 | 28 | 180 | 0.0 | 0.0 | 0.00 | 0.00 | 0.00 | 46 | 1009.0 |
| 20260906094009 | 28 | 180 | 0.0 | 0.0 | 0.00 | 0.00 | 0.00 | 46 | 1009.0 |
| 20260906093008 | 28 | 180 | 0.0 | 0.0 | 0.00 | 0.00 | 0.00 | 46 | 1009.3 |
| 20260906092739 | 28 | 180 | 0.0 | 0.0 | 0.00 | 0.00 | 0.00 | 46 | 1009.0 |
| 20260906092239 | 29 | 180 | 0.0 | 0.0 | 0.00 | 0.00 | 0.00 | 45 | 1009.0 |
| 20260906091509 | 29 | 203 | 0.0 | 0.0 | 0.00 | 0.00 | 0.00 | 46 | 1009.0 |
| 20260906091008 | 29 | 45 | 0.0 | 0.0 | 0.00 | 0.00 | 0.00 | 46 | 1009.0 |
| 20260906090509 | 29 | 45 | 0.0 | 0.0 | 0.00 | 0.00 | 0.00 | 46 | 1009.0 |
| 20260906090009 | 29 | 45 | 0.0 | 1.6 | 0.00 | 0.00 | 0.00 | 45 | 1009.0 |
| 20260906085509 | 29 | 45 | 0.0 | 1.6 | 0.00 | 0.00 | 0.00 | 45 | 1009.0 |
| 20260906085009 | 29 | 45 | 0.0 | 1.6 | 0.00 | 0.00 | 0.00 | 45 | 1009.0 |
| 20260906084739 | 29 | 23 | 0.0 | 0.0 | 0.00 | 0.00 | 0.00 | 43 | 1009.0 |
| 20260906084008 | 29 | 338 | 0.0 | 0.0 | 0.00 | 0.00 | 0.00 | 44 | 1009.0 |
| 20260906083738 | 29 | 338 | 0.0 | 0.0 | 0.00 | 0.00 | 0.00 | 45 | 1009.3 |
| 20260906083007 | 30 | 338 | 0.0 | 0.0 | 0.00 | 0.00 | 0.00 | 45 | 1009.0 |
| 20260906082509 | 30 | 338 | 0.0 | 0.0 | 0.00 | 0.00 | 0.00 | 45 | 1009.0 |
| 20260906082009 | 30 | 338 | 0.0 | 0.0 | 0.00 | 0.00 | 0.00 | 43 | 1009.3 |
| 20260906081509 | 30 | 338 | 0.0 | 0.0 | 0.00 | 0.00 | 0.00 | 45 | 1009.3 |
| 20260906081008 | 30 | 338 | 0.0 | 0.0 | 0.00 | 0.00 | 0.00 | 45 | 1009.3 |
| 20260906080509 | 30 | 338 | 0.0 | 0.0 | 0.00 | 0.00 | 0.00 | 44 | 1009.3 |
| 20260906080008 | 30 | 338 | 0.0 | 0.0 | 0.00 | 0.00 | 0.00 | 44 | 1009.3 |
| 20260906075509 | 30 | 338 | 0.0 | 0.0 | 0.00 | 0.00 | 0.00 | 43 | 1009.3 |
| 20260906074950 | 30 | 0 | 0.0 | 0.0 | 0.00 | 0.00 | 0.00 | 43 | 1009.3 |
| 20260906074721 | 30 | 23 | 0.0 | 0.0 | 0.00 | 0.00 | 0.00 | 41 | 1009.0 |
| 20260906073951 | 30 | 23 | 0.0 | 0.0 | 0.00 | 0.00 | 0.00 | 41 | 1009.3 |
| 20260906073450 | 30 | 23 | 0.0 | 0.0 | 0.00 | 0.00 | 0.00 | 40 | 1009.3 |
| 20260906072950 | 30 | 23 | 0.0 | 0.0 | 0.00 | 0.00 | 0.00 | 43 | 1009.7 |
| 20260906072450 | 30 | 23 | 0.0 | 0.0 | 0.00 | 0.00 | 0.00 | 44 | 1009.7 |
| 20260906071950 | 30 | 23 | 0.0 | 0.0 | 0.00 | 0.00 | 0.00 | 43 | 1009.7 |
| 20260906071448 | 30 | 315 | 0.0 | 0.0 | 0.00 | 0.00 | 0.00 | 43 | 1009.3 |
| 20260906071220 | 30 | 45 | 0.0 | 0.0 | 0.00 | 0.00 | 0.00 | 43 | 1009.3 |
| 20260906070449 | 30 | 45 | 0.0 | 0.0 | 0.00 | 0.00 | 0.00 | 43 | 1009.3 |
| 20260906065949 | 31 | 45 | 0.0 | 0.0 | 0.00 | 0.00 | 0.00 | 41 | 1009.3 |
| 20260906065450 | 31 | 45 | 0.0 | 0.0 | 0.00 | 0.00 | 0.00 | 41 | 1009.3 |
| 20260906064950 | 31 | 45 | 0.0 | 0.0 | 0.00 | 0.00 | 0.00 | 41 | 1009.3 |
| 20260906064451 | 31 | 338 | 0.0 | 0.0 | 0.00 | 0.00 | 0.00 | 40 | 1009.7 |
| 20260906064221 | 31 | 338 | 0.0 | 0.0 | 0.00 | 0.00 | 0.00 | 41 | 1009.7 |
| 20260906063450 | 31 | 23 | 0.0 | 0.0 | 0.00 | 0.00 | 0.00 | 40 | 1009.7 |
| 20260906062948 | 31 | 23 | 0.0 | 0.0 | 0.00 | 0.00 | 0.00 | 40 | 1009.7 |
| 20260906062449 | 31 | 338 | 0.0 | 0.0 | 0.00 | 0.00 | 0.00 | 40 | 1009.7 |
| 20260906061949 | 31 | 315 | 0.0 | 0.0 | 0.00 | 0.00 | 0.00 | 39 | 1009.7 |
| 20260906061449 | 31 | 270 | 0.0 | 0.0 | 0.00 | 0.00 | 0.00 | 40 | 1009.7 |
| 20260906061221 | 31 | 270 | 0.0 | 0.0 | 0.00 | 0.00 | 0.00 | 40 | 1009.7 |
| 20260906060450 | 31 | 270 | 0.0 | 0.0 | 0.00 | 0.00 | 0.00 | 40 | 1009.7 |
| 20260906055950 | 31 | 23 | 0.0 | 0.0 | 0.00 | 0.00 | 0.00 | 39 | 1009.7 |
| 20260906055450 | 31 | 23 | 0.0 | 0.0 | 0.00 | 0.00 | 0.00 | 39 | 1009.7 |
| 20260906054950 | 32 | 45 | 0.0 | 0.0 | 0.00 | 0.00 | 0.00 | 37 | 1009.7 |
| 20260906054451 | 32 | 45 | 0.0 | 0.0 | 0.00 | 0.00 | 0.00 | 39 | 1009.7 |
| 20260906053950 | 32 | 23 | 0.0 | 0.0 | 0.00 | 0.00 | 0.00 | 39 | 1009.7 |
| 20260906053720 | 32 | 338 | 0.0 | 0.0 | 0.00 | 0.00 | 0.00 | 37 | 1009.3 |
| 20260906052949 | 32 | 338 | 0.0 | 0.0 | 0.00 | 0.00 | 0.00 | 37 | 1009.7 |
| 20260906052719 | 32 | 338 | 0.0 | 0.0 | 0.00 | 0.00 | 0.00 | 37 | 1009.3 |
| 20260906051950 | 32 | 0 | 0.0 | 0.0 | 0.00 | 0.00 | 0.00 | 37 | 1009.7 |
| 20260906051451 | 32 | 45 | 0.0 | 0.0 | 0.00 | 0.00 | 0.00 | 37 | 1009.7 |
| 20260906050950 | 32 | 45 | 0.0 | 0.0 | 0.00 | 0.00 | 0.00 | 37 | 1009.7 |
| 20260906050450 | 32 | 45 | 0.0 | 0.0 | 0.00 | 0.00 | 0.00 | 35 | 1009.7 |
| 20260906045950 | 32 | 45 | 0.0 | 3.2 | 0.00 | 0.00 | 0.00 | 35 | 1009.7 |
| 20260906045451 | 32 | 0 | 0.0 | 3.2 | 0.00 | 0.00 | 0.00 | 35 | 1009.7 |
| 20260906044949 | 33 | 315 | 0.0 | 1.6 | 0.00 | 0.00 | 0.00 | 35 | 1009.7 |
| 20260906044449 | 33 | 315 | 0.0 | 0.0 | 0.00 | 0.00 | 0.00 | 35 | 1009.7 |
| 20260906043949 | 33 | 315 | 0.0 | 0.0 | 0.00 | 0.00 | 0.00 | 35 | 1009.3 |
| 20260906043450 | 33 | 315 | 0.0 | 0.0 | 0.00 | 0.00 | 0.00 | 34 | 1010.0 |
| 20260906042950 | 33 | 315 | 0.0 | 1.6 | 0.00 | 0.00 | 0.00 | 34 | 1009.7 |
| 20260906042450 | 33 | 315 | 0.0 | 3.2 | 0.00 | 0.00 | 0.00 | 32 | 1009.7 |
| 20260906041950 | 33 | 293 | 0.0 | 4.8 | 0.00 | 0.00 | 0.00 | 32 | 1009.7 |
| 20260906041454 | 33 | 338 | 0.0 | 6.4 | 0.00 | 0.00 | 0.00 | 32 | 1009.7 |
| 20260906041450 | 33 | 23 | 0.0 | 4.8 | 0.00 | 0.00 | 0.00 | 32 | 1009.7 |
| 20260906041207 | 33 | 338 | 0.0 | 6.4 | 0.00 | 0.00 | 0.00 | 32 | 1010.0 |
| 20260906035948 | 33 | 0 | 0.0 | 6.4 | 0.00 | 0.00 | 0.00 | 32 | 1010.0 |
| 20260906035449 | 33 | 45 | 0.0 | 6.4 | 0.00 | 0.00 | 0.00 | 32 | 1009.7 |
| 20260906034949 | 33 | 315 | 0.0 | 8.0 | 0.00 | 0.00 | 0.00 | 32 | 1009.7 |
| 20260906034450 | 33 | 293 | 1.6 | 8.0 | 0.00 | 0.00 | 0.00 | 31 | 1009.7 |
| 20260906033950 | 33 | 338 | 1.6 | 4.8 | 0.00 | 0.00 | 0.00 | 31 | 1009.7 |
| 20260906033450 | 34 | 23 | 1.6 | 8.0 | 0.00 | 0.00 | 0.00 | 30 | 1009.3 |
| 20260906032950 | 34 | 338 | 1.6 | 8.0 | 0.00 | 0.00 | 0.00 | 31 | 1009.3 |
| 20260906032724 | 34 | 338 | 1.6 | 11.3 | 0.00 | 0.00 | 0.00 | 30 | 1009.0 |
| 20260906032450 | 34 | 338 | 1.6 | 11.3 | 0.00 | 0.00 | 0.00 | 30 | 1009.3 |
| 20260906031450 | 34 | 23 | 1.6 | 11.3 | 0.00 | 0.00 | 0.00 | 30 | 1009.0 |
| 20260906030949 | 34 | 338 | 1.6 | 9.7 | 0.00 | 0.00 | 0.00 | 30 | 1009.0 |
| 20260906030449 | 34 | 0 | 1.6 | 8.0 | 0.00 | 0.00 | 0.00 | 30 | 1009.0 |
| 20260906025949 | 34 | 45 | 1.6 | 9.7 | 0.00 | 0.00 | 0.00 | 30 | 1009.0 |
| 20260906025450 | 35 | 45 | 1.6 | 9.7 | 0.00 | 0.00 | 0.00 | 30 | 1009.0 |
| 20260906024950 | 35 | 203 | 1.6 | 8.0 | 0.00 | 0.00 | 0.00 | 30 | 1009.0 |
| 20260906024449 | 35 | 23 | 1.6 | 9.7 | 0.00 | 0.00 | 0.00 | 30 | 1009.0 |
| 20260906023950 | 35 | 0 | 1.6 | 9.7 | 0.00 | 0.00 | 0.00 | 29 | 1009.0 |
| 20260906023448 | 35 | 270 | 1.6 | 8.0 | 0.00 | 0.00 | 0.00 | 30 | 1009.0 |
| 20260906022950 | 35 | 338 | 1.6 | 8.0 | 0.00 | 0.00 | 0.00 | 30 | 1008.7 |
| 20260906022449 | 35 | 338 | 1.6 | 8.0 | 0.00 | 0.00 | 0.00 | 30 | 1009.0 |
| 20260906021948 | 35 | 315 | 1.6 | 8.0 | 0.00 | 0.00 | 0.00 | 30 | 1008.7 |
| 20260906021449 | 35 | 270 | 1.6 | 11.3 | 0.00 | 0.00 | 0.00 | 29 | 1008.7 |
| 20260906020950 | 35 | 270 | 1.6 | 11.3 | 0.00 | 0.00 | 0.00 | 30 | 1008.7 |
| 20260906020449 | 35 | 270 | 1.6 | 11.3 | 0.00 | 0.00 | 0.00 | 27 | 1008.7 |
| 20260906015948 | 36 | 270 | 1.6 | 11.3 | 0.00 | 0.00 | 0.00 | 27 | 1008.7 |
| 20260906015449 | 36 | 45 | 1.6 | 9.7 | 0.00 | 0.00 | 0.00 | 27 | 1009.0 |
| 20260906014948 | 36 | 270 | 1.6 | 11.3 | 0.00 | 0.00 | 0.00 | 27 | 1009.0 |
| 20260906014447 | 36 | 270 | 1.6 | 11.3 | 0.00 | 0.00 | 0.00 | 27 | 1008.7 |
| 20260906013948 | 36 | 338 | 1.6 | 11.3 | 0.00 | 0.00 | 0.00 | 27 | 1009.0 |
| 20260906013718 | 36 | 45 | 1.6 | 11.3 | 0.00 | 0.00 | 0.00 | 27 | 1008.7 |
| 20260906012949 | 36 | 270 | 1.6 | 12.9 | 0.00 | 0.00 | 0.00 | 27 | 1008.7 |
| 20260906012449 | 36 | 338 | 1.6 | 12.9 | 0.00 | 0.00 | 0.00 | 27 | 1008.7 |
| 20260906011949 | 37 | 68 | 1.6 | 12.9 | 0.00 | 0.00 | 0.00 | 27 | 1008.7 |
| 20260906011449 | 37 | 293 | 3.2 | 14.5 | 0.00 | 0.00 | 0.00 | 27 | 1008.7 |
| 20260906010948 | 37 | 315 | 3.2 | 14.5 | 0.00 | 0.00 | 0.00 | 27 | 1008.7 |
| 20260906010448 | 37 | 338 | 1.6 | 12.9 | 0.00 | 0.00 | 0.00 | 25 | 1008.7 |
| 20260906005947 | 37 | 0 | 1.6 | 16.1 | 0.00 | 0.00 | 0.00 | 25 | 1008.7 |
| 20260906005447 | 37 | 338 | 3.2 | 16.1 | 0.00 | 0.00 | 0.00 | 25 | 1008.7 |
| 20260906004947 | 38 | 270 | 3.2 | 12.9 | 0.00 | 0.00 | 0.00 | 25 | 1008.7 |
| 20260906004448 | 38 | 270 | 1.6 | 12.9 | 0.00 | 0.00 | 0.00 | 25 | 1008.7 |
| 20260906003948 | 38 | 338 | 3.2 | 12.9 | 0.00 | 0.00 | 0.00 | 25 | 1008.7 |
| 20260906003719 | 38 | 338 | 3.2 | 14.5 | 0.00 | 0.00 | 0.00 | 25 | 1008.7 |
| 20260906002948 | 38 | 0 | 3.2 | 14.5 | 0.00 | 0.00 | 0.00 | 25 | 1008.7 |
| 20260906002719 | 38 | 0 | 3.2 | 14.5 | 0.00 | 0.00 | 0.00 | 25 | 1008.7 |
| 20260906001947 | 38 | 338 | 3.2 | 14.5 | 0.00 | 0.00 | 0.00 | 25 | 1008.7 |
| 20260906001447 | 38 | 270 | 1.6 | 12.9 | 0.00 | 0.00 | 0.00 | 25 | 1008.7 |
| 20260906000946 | 38 | 293 | 3.2 | 16.1 | 0.00 | 0.00 | 0.00 | 25 | 1008.3 |
| 20260906000448 | 39 | 0 | 3.2 | 16.1 | 0.00 | 0.00 | 0.00 | 25 | 1008.3 |
| 20260906000221 | 39 | 23 | 3.2 | 12.9 | 0.00 | 0.00 | 0.00 | 25 | 1008.3 |
| 20260905235718 | 39 | 270 | 3.2 | 12.9 | 0.00 | 0.00 | 0.00 | 25 | 1008.3 |
| 20260905235218 | 39 | 23 | 3.2 | 11.3 | 0.00 | 0.00 | 0.00 | 25 | 1008.7 |
| 20260905234447 | 39 | 338 | 1.6 | 12.9 | 0.00 | 0.00 | 0.00 | 25 | 1008.7 |
| 20260905233947 | 40 | 248 | 1.6 | 12.9 | 0.00 | 0.00 | 0.00 | 25 | 1008.7 |
| 20260905233717 | 40 | 248 | 1.6 | 12.9 | 0.00 | 0.00 | 0.00 | 25 | 1008.7 |
| 20260905232946 | 40 | 113 | 3.2 | 12.9 | 0.00 | 0.00 | 0.00 | 25 | 1008.7 |
| 20260905232446 | 40 | 338 | 1.6 | 12.9 | 0.00 | 0.00 | 0.00 | 27 | 1008.7 |
| 20260905231947 | 40 | 90 | 3.2 | 12.9 | 0.00 | 0.00 | 0.00 | 27 | 1008.7 |
| 20260905231447 | 40 | 338 | 1.6 | 12.9 | 0.00 | 0.00 | 0.00 | 27 | 1008.7 |
| 20260905230947 | 40 | 338 | 1.6 | 12.9 | 0.00 | 0.00 | 0.00 | 27 | 1008.7 |
| 20260905230447 | 40 | 0 | 3.2 | 12.9 | 0.00 | 0.00 | 0.00 | 27 | 1008.3 |
| 20260905225947 | 40 | 338 | 3.2 | 12.9 | 0.00 | 0.00 | 0.00 | 27 | 1008.7 |
| 20260905225447 | 40 | 270 | 3.2 | 12.9 | 0.00 | 0.00 | 0.00 | 27 | 1008.3 |
| 20260905224946 | 40 | 248 | 3.2 | 12.9 | 0.00 | 0.00 | 0.00 | 27 | 1008.7 |
| 20260905224446 | 40 | 0 | 1.6 | 8.0 | 0.00 | 0.00 | 0.00 | 29 | 1008.7 |
| 20260905223946 | 40 | 338 | 1.6 | 8.0 | 0.00 | 0.00 | 0.00 | 29 | 1008.7 |
| 20260905223445 | 40 | 45 | 1.6 | 9.7 | 0.00 | 0.00 | 0.00 | 29 | 1008.7 |
| 20260905223217 | 39 | 23 | 1.6 | 9.7 | 0.00 | 0.00 | 0.00 | 29 | 1008.7 |
| 20260905222446 | 39 | 0 | 1.6 | 12.9 | 0.00 | 0.00 | 0.00 | 29 | 1008.7 |
| 20260905221946 | 39 | 338 | 1.6 | 12.9 | 0.00 | 0.00 | 0.00 | 29 | 1009.0 |
| 20260905221446 | 39 | 23 | 1.6 | 8.0 | 0.00 | 0.00 | 0.00 | 27 | 1009.0 |
| 20260905220947 | 39 | 270 | 1.6 | 9.7 | 0.00 | 0.00 | 0.00 | 29 | 1009.0 |
| 20260905220445 | 39 | 45 | 1.6 | 11.3 | 0.00 | 0.00 | 0.00 | 29 | 1009.3 |
| 20260905215944 | 39 | 180 | 1.6 | 11.3 | 0.00 | 0.00 | 0.00 | 27 | 1009.0 |
| 20260905215445 | 39 | 270 | 3.2 | 11.3 | 0.00 | 0.00 | 0.00 | 29 | 1009.0 |
| 20260905214945 | 39 | 293 | 1.6 | 11.3 | 0.00 | 0.00 | 0.00 | 29 | 1009.3 |
| 20260905214446 | 39 | 270 | 0.0 | 8.0 | 0.00 | 0.00 | 0.00 | 30 | 1009.3 |
| 20260905213946 | 39 | 338 | 1.6 | 14.5 | 0.00 | 0.00 | 0.00 | 30 | 1009.3 |
| 20260905213446 | 39 | 338 | 1.6 | 14.5 | 0.00 | 0.00 | 0.00 | 30 | 1009.3 |
| 20260905212946 | 39 | 338 | 1.6 | 9.7 | 0.00 | 0.00 | 0.00 | 29 | 1009.7 |
| 20260905212446 | 39 | 23 | 1.6 | 12.9 | 0.00 | 0.00 | 0.00 | 30 | 1009.3 |
| 20260905211944 | 38 | 270 | 1.6 | 12.9 | 0.00 | 0.00 | 0.00 | 30 | 1009.7 |
| 20260905211444 | 38 | 270 | 1.6 | 11.3 | 0.00 | 0.00 | 0.00 | 30 | 1009.7 |
| 20260905210945 | 38 | 315 | 1.6 | 11.3 | 0.00 | 0.00 | 0.00 | 30 | 1009.7 |
| 20260905210444 | 38 | 270 | 1.6 | 9.7 | 0.00 | 0.00 | 0.00 | 29 | 1010.0 |
| 20260905205946 | 38 | 225 | 1.6 | 8.0 | 0.00 | 0.00 | 0.00 | 29 | 1010.0 |
| 20260905205446 | 38 | 270 | 0.0 | 9.7 | 0.00 | 0.00 | 0.00 | 30 | 1010.0 |
| 20260905205217 | 38 | 45 | 1.6 | 9.7 | 0.00 | 0.00 | 0.00 | 30 | 1010.5 |
| 20260905204445 | 38 | 315 | 1.6 | 9.7 | 0.00 | 0.00 | 0.00 | 30 | 1010.0 |
| 20260905203946 | 38 | 158 | 1.6 | 12.9 | 0.00 | 0.00 | 0.00 | 29 | 1010.5 |
| 20260905203444 | 38 | 293 | 1.6 | 12.9 | 0.00 | 0.00 | 0.00 | 29 | 1010.5 |
| 20260905202944 | 38 | 293 | 1.6 | 8.0 | 0.00 | 0.00 | 0.00 | 30 | 1010.5 |
| 20260905202714 | 38 | 0 | 1.6 | 9.7 | 0.00 | 0.00 | 0.00 | 30 | 1010.8 |
| 20260905201944 | 38 | 0 | 1.6 | 9.7 | 0.00 | 0.00 | 0.00 | 31 | 1010.8 |
| 20260905201445 | 38 | 45 | 0.0 | 6.4 | 0.00 | 0.00 | 0.00 | 31 | 1010.8 |
| 20260905200944 | 38 | 203 | 0.0 | 6.4 | 0.00 | 0.00 | 0.00 | 30 | 1010.8 |
| 20260905200445 | 38 | 203 | 1.6 | 8.0 | 0.00 | 0.00 | 0.00 | 30 | 1010.8 |
| 20260905200215 | 38 | 135 | 1.6 | 8.0 | 0.00 | 0.00 | 0.00 | 30 | 1010.8 |
| 20260905195445 | 38 | 68 | 1.6 | 6.4 | 0.00 | 0.00 | 0.00 | 30 | 1010.8 |
| 20260905195215 | 38 | 180 | 1.6 | 8.0 | 0.00 | 0.00 | 0.00 | 29 | 1011.1 |